HB9CJD-1 Weather Reports


time (UTC)temp
F
wind
direction
speed
knots
gust
knots
rain 1hr
in
rain 24hr
in
rain mn
in
humidity
%
barometer
mb
20260506022602 53 0 0.0 0.0 0.00 0.00 0.00 83 1011.3
20260506021559 53 0 0.0 0.0 0.00 0.00 0.00 83 1011.4
20260506021049 53 0 0.0 0.0 0.00 0.00 0.00 83 1011.4
20260506020555 53 0 0.0 0.0 0.00 0.00 0.00 83 1011.4
20260506015552 54 0 0.0 0.0 0.00 0.00 0.00 82 1011.5
20260506014549 54 0 0.0 0.0 0.00 0.00 0.00 78 1011.6
20260506013546 54 0 0.0 0.0 0.00 0.00 0.00 83 1011.6
20260506012542 54 0 0.0 0.0 0.00 0.00 0.00 82 1011.8
20260506011539 54 0 0.0 0.0 0.00 0.00 0.00 82 1011.8
20260506010536 54 0 0.0 0.0 0.00 0.00 0.00 80 1011.8
20260506005533 54 0 0.0 0.0 0.00 0.00 0.00 79 1011.9
20260506004529 54 0 0.0 0.0 0.00 0.00 0.00 82 1011.8
20260506003526 54 0 0.0 0.0 0.00 0.00 0.00 82 1012.1
20260506002523 55 0 0.0 0.0 0.00 0.00 0.00 79 1012.0
20260506001520 54 0 0.0 0.0 0.00 0.00 0.00 80 1012.3
20260506000516 55 0 0.0 0.0 0.00 0.00 0.00 79 1012.4
20260505235513 55 0 0.0 0.0 0.00 0.00 0.00 75 1012.3
20260505234510 55 0 0.0 0.0 0.00 0.00 0.00 76 1012.3
20260505233507 55 0 0.0 0.0 0.00 0.00 0.00 76 1012.4
20260505232503 55 0 0.0 0.0 0.00 0.00 0.00 76 1012.5
20260505231500 55 0 0.0 0.0 0.00 0.00 0.00 76 1012.6
20260505230457 55 0 0.0 0.0 0.00 0.00 0.00 77 1012.6
20260505225454 55 0 0.0 0.0 0.00 0.00 0.00 78 1012.6
20260505224450 55 0 0.0 0.0 0.00 0.00 0.00 78 1012.7
20260505223448 55 0 0.0 0.0 0.00 0.00 0.00 78 1012.5
20260505222444 55 0 0.0 0.0 0.00 0.00 0.00 75 1012.6
20260505221441 56 0 0.0 0.0 0.00 0.00 0.00 75 1012.5
20260505220437 56 0 0.0 0.0 0.00 0.00 0.00 74 1012.7
20260505215434 56 0 0.0 0.0 0.00 0.00 0.00 77 1012.9
20260505214431 56 0 0.0 0.0 0.00 0.00 0.00 77 1012.9
20260505213428 56 0 0.0 0.0 0.00 0.00 0.00 75 1013.0
20260505212424 56 0 0.0 0.0 0.00 0.00 0.00 74 1013.0
20260505211421 56 0 0.0 0.0 0.00 0.00 0.00 74 1013.1
20260505210418 56 0 0.0 0.0 0.00 0.00 0.00 73 1013.1
20260505205415 56 0 0.0 0.0 0.00 0.00 0.00 73 1013.1
20260505204411 56 0 0.0 0.0 0.00 0.00 0.00 72 1013.1
20260505203408 56 0 0.0 0.0 0.00 0.00 0.00 72 1013.1
20260505202405 56 0 0.0 0.0 0.00 0.00 0.00 71 1013.0
20260505201402 56 0 0.0 0.0 0.00 0.00 0.00 72 1013.0
20260505200358 56 0 0.0 0.0 0.00 0.00 0.00 71 1012.9
20260505195355 56 0 0.0 0.0 0.00 0.00 0.00 71 1012.8
20260505194352 57 0 0.0 0.0 0.00 0.00 0.00 72 1012.7
20260505193349 57 0 0.0 0.0 0.00 0.00 0.00 73 1012.6
20260505192345 57 0 0.0 0.0 0.00 0.00 0.00 72 1012.5
20260505191342 57 0 0.0 0.0 0.00 0.00 0.00 73 1012.5
20260505190339 57 0 0.0 0.0 0.00 0.00 0.00 74 1012.4
20260505185336 58 0 0.0 0.0 0.00 0.00 0.00 75 1012.4
20260505184332 58 0 0.0 0.0 0.00 0.00 0.00 76 1012.2
20260505183329 59 0 0.0 0.0 0.00 0.00 0.00 76 1012.3
20260505182326 58 0 0.0 0.0 0.00 0.00 0.00 78 1012.4
20260505181323 58 0 0.0 0.0 0.00 0.00 0.00 79 1012.3
20260505180319 58 0 0.0 0.0 0.00 0.00 0.00 77 1012.4
20260505175316 58 0 0.0 0.0 0.00 0.00 0.00 75 1012.4
20260505174313 58 0 0.0 0.0 0.00 0.00 0.00 77 1012.5
20260505173310 57 0 0.0 0.0 0.00 0.00 0.00 78 1012.5
20260505172306 57 0 0.0 0.0 0.00 0.00 0.00 75 1012.3
20260505171303 57 0 0.0 0.0 0.00 0.00 0.00 80 1012.3
20260505170300 58 0 0.0 0.0 0.00 0.00 0.00 75 1012.2
20260505165257 58 0 0.0 0.0 0.00 0.00 0.00 74 1012.2
20260505164253 57 0 0.0 0.0 0.00 0.00 0.00 75 1012.5
20260505163250 57 0 0.0 0.0 0.00 0.00 0.00 72 1012.5
20260505162248 58 0 0.0 0.0 0.00 0.00 0.00 68 1012.5
20260505161244 59 0 0.0 0.0 0.00 0.00 0.00 67 1012.2
20260505160240 59 0 0.0 0.0 0.00 0.00 0.00 68 1012.1
20260505153231 62 0 0.0 0.0 0.00 0.00 0.00 61 1011.6
20260505152228 64 0 0.0 0.0 0.00 0.00 0.00 57 1011.4
20260505151224 65 0 0.0 0.0 0.00 0.00 0.00 55 1011.4
20260505150221 65 0 0.0 0.0 0.00 0.00 0.00 54 1011.4
20260505140201 66 0 0.0 0.0 0.00 0.00 0.00 56 1011.2
20260505130142 65 0 0.0 0.0 0.00 0.00 0.00 64 1011.5
20260505124135 63 0 0.0 0.0 0.00 0.00 0.00 65 1011.5
20260505123132 63 0 0.0 0.0 0.00 0.00 0.00 66 1011.6
20260505122129 61 0 0.0 0.0 0.00 0.00 0.00 70 1011.7
20260505121126 61 0 0.0 0.0 0.00 0.00 0.00 68 1011.7
20260505120122 61 0 0.0 0.0 0.00 0.00 0.00 68 1011.8
20260505115119 61 0 0.0 0.0 0.00 0.00 0.00 74 1011.8
20260505114116 61 0 0.0 0.0 0.00 0.00 0.00 74 1011.8
20260505113113 59 0 0.0 0.0 0.00 0.00 0.00 81 1011.8
20260505112109 58 0 0.0 0.0 0.00 0.00 0.00 83 1012.0
20260505111106 56 0 0.0 0.0 0.00 0.00 0.00 85 1011.9
20260505102050 57 0 0.0 0.0 0.00 0.00 0.00 82 1012.1
20260505101047 56 0 0.0 0.0 0.00 0.00 0.00 86 1012.1
20260505100043 55 0 0.0 0.0 0.00 0.00 0.00 87 1012.1
20260505095040 55 0 0.0 0.0 0.00 0.00 0.00 86 1012.2
20260505094037 56 0 0.0 0.0 0.00 0.00 0.00 86 1012.2
20260505093034 55 0 0.0 0.0 0.00 0.00 0.00 87 1012.1
20260505092030 55 0 0.0 0.0 0.00 0.00 0.00 83 1012.2
20260505091028 54 0 0.0 0.0 0.00 0.00 0.00 87 1012.1
20260505090024 54 0 0.0 0.0 0.00 0.00 0.00 85 1012.1
20260505085021 54 0 0.0 0.0 0.00 0.00 0.00 87 1012.2
20260505084017 53 0 0.0 0.0 0.00 0.00 0.00 88 1012.3
20260505083014 54 0 0.0 0.0 0.00 0.00 0.00 86 1012.4
20260505082011 53 0 0.0 0.0 0.00 0.00 0.00 85 1012.3
20260505081008 53 0 0.0 0.0 0.00 0.00 0.00 85 1012.5
20260505080004 53 0 0.0 0.0 0.00 0.00 0.00 84 1012.4
20260505075001 54 0 0.0 0.0 0.00 0.00 0.00 81 1012.6
20260505073958 54 0 0.0 0.0 0.00 0.00 0.00 81 1012.7
20260505072955 54 0 0.0 0.0 0.00 0.00 0.00 78 1012.8
20260505071951 54 0 0.0 0.0 0.00 0.00 0.00 78 1013.0
20260505070948 54 0 0.0 0.0 0.00 0.00 0.00 80 1012.9
20260505065945 54 0 0.0 0.0 0.00 0.00 0.00 79 1013.0
20260505064942 53 0 0.0 0.0 0.00 0.00 0.00 82 1013.1
20260505063938 53 0 0.0 0.0 0.00 0.00 0.00 82 1013.0
20260505062935 53 0 0.0 0.0 0.00 0.00 0.00 83 1013.0
20260505061932 53 0 0.0 0.0 0.00 0.00 0.00 83 1013.0
20260505060929 52 0 0.0 0.0 0.00 0.00 0.00 83 1012.9
20260505055925 53 0 0.0 0.0 0.00 0.00 0.00 84 1013.0
20260505054922 53 0 0.0 0.0 0.00 0.00 0.00 81 1012.9
20260505053919 53 0 0.0 0.0 0.00 0.00 0.00 82 1012.9
20260505052916 53 0 0.0 0.0 0.00 0.00 0.00 79 1012.8
20260505051912 53 0 0.0 0.0 0.00 0.00 0.00 80 1012.8
20260505050909 53 0 0.0 0.0 0.00 0.00 0.00 82 1012.7
20260505040850 53 0 0.0 0.0 0.00 0.00 0.00 77 1012.8
20260505035846 53 0 0.0 0.0 0.00 0.00 0.00 78 1012.9
20260505034843 53 0 0.0 0.0 0.00 0.00 0.00 80 1012.9
20260505033840 53 0 0.0 0.0 0.00 0.00 0.00 76 1013.0
20260505032837 53 0 0.0 0.0 0.00 0.00 0.00 77 1012.9
20260505031833 53 0 0.0 0.0 0.00 0.00 0.00 79 1013.2
20260505030830 53 0 0.0 0.0 0.00 0.00 0.00 78 1013.3
20260505025827 53 0 0.0 0.0 0.00 0.00 0.00 76 1013.3
20260505024824 53 0 0.0 0.0 0.00 0.00 0.00 76 1013.3
20260505023820 53 0 0.0 0.0 0.00 0.00 0.00 77 1013.5